Regional Weather Roundup
Issued by NWS

Home | Current Version | Previous Version | Text Only | Print | Product List | Glossary On
Versions: 1 2 3 4 5 6 7 8 9 10 11 12 13 14 15 16 17 18 19 20 21 22 23 24 25 26 27
000
ASUS45 KCYS 292210
RWRWY

WYOMING REGIONAL WEATHER ROUNDUP
NATIONAL WEATHER SERVICE CHEYENNE WY
400 PM MDT WED MAR 29 2017

NOTE:  "FAIR" INDICATES FEW OR NO CLOUDS BELOW 12,000 FEET
WITH NO SIGNIFICANT WEATHER AND/OR OBSTRUCTIONS TO VISIBILITY.

WYZ001-292300-
YELLOWSTONE NATIONAL PARK

CITY           SKY/WX    TMP DP  RH WIND       PRES   REMARKS
LK YELLOWSTONE   N/A     36  25  64 VRB5G17   30.11F WCI  32
W YELLOWSTONE  NOT AVBL

$$
WYZ002>013-054>058-071-098>099-292300-
NORTHERN WYOMING

CITY           SKY/WX    TMP DP  RH WIND       PRES   REMARKS
JACKSON        PTSUNNY   46  28  49 W15       30.10S
CODY           FAIR      59  25  27 W15       29.94F
GREYBULL       FAIR      59  27  29 S9        29.93F
WORLAND        FAIR      58  31  35 SE5       29.94F
SHERIDAN       FAIR      60  31  33 VRB3      29.93F
BUFFALO        FAIR      58  26  29 E14       29.95F
GILLETTE       FAIR      57  25  29 CALM      29.96F
HULETT         FAIR      55  28  35 SW5       29.98F
NEWCASTLE      FAIR      55  27  33 NW10G17   29.97F

$$
WYZ014>020-022>026-101>103-292300-
CENTRAL WYOMING

CITY           SKY/WX    TMP DP  RH WIND       PRES   REMARKS
BIG PINEY      FAIR      51  23  33 W5        30.09F
PINEDALE       MOCLDY    46  21  36 NW13G20   30.11S
DUBOIS         MOCLDY    50  21  32 NW20G30   30.02S
LANDER         FAIR      56  29  35 VRB3      29.96F
RIVERTON       FAIR      55  30  38 S9        29.98F
CASPER         FAIR      58  27  30 W13       29.98F
DOUGLAS        FAIR      59  25  27 W13       29.97F

$$
WYZ021-027>030-104>119-292300-
SOUTHERN WYOMING

CITY           SKY/WX    TMP DP  RH WIND       PRES   REMARKS
EVANSTON       FAIR      50  25  37 W12G20    30.15F
KEMMERER         N/A     45  28  53 W15G21    30.14F
FORT BRIDGER   FAIR      54  27  35 W15       30.16S
ROCK SPRINGS   FAIR      51  30  44 W16       30.08F
DIXON            N/A     53  23  31 W7        30.11F
RAWLINS        FAIR      52  25  35 W20G25    30.05F
SARATOGA       FAIR      50  25  37 W13G26    30.07F
LARAMIE        FAIR      49  21  33 N20G25    30.01F
CHEYENNE       FAIR      53  24  32 N20G29    29.99F
TORRINGTON     FAIR      60  28  29 NW13G18   29.95F
PINE BLUFFS    FAIR      54  32  43 N21G28    29.97F

$$




USA.gov is the U.S. government's official web portal to all federal, state and local government web resources and services.